Regional Weather Roundup
Issued by NWS

Home | Current Version | Previous Version | Graphics & Text | Print | Product List | Glossary On
Versions: 1 2 3 4 5 6 7 8 9 10 11 12 13 14 15 16 17 18 19 20 21 22 23 24 25 26 27 28 29 30 31 32 33 34 35 36 37 38 39 40 41 42 43 44 45 46 47 48 49 50
060
ASUS43 KLSX 102110
RWRMO

WEATHER SUMMARY FOR MISSOURI
NATIONAL WEATHER SERVICE SPRINGFIELD MO
300 PM CST SAT DEC 10 2016

NOTE: "FAIR" INDICATES FEW OR NO CLOUDS BELOW 12,000 FEET WITH NO
       SIGNIFICANT WEATHER AND/OR OBSTRUCTIONS TO VISIBILITY.
       CURRENT SKY AND/OR WEATHER CONDITIONS ARE NOT AVAILABLE FOR
       CHILLICOTHE AND FARMINGTON.

MOZ001>031-035>038-043-044-053-054-102200-
...NORTHERN AND WESTERN MISSOURI...

CITY           SKY/WX    TMP DP  RH WIND       PRES   REMARKS
KANSAS CTY INT CLOUDY    35  19  52 SE13      30.15F WCI  26
KANSAS C DTWN  CLOUDY    37  24  59 SE9       30.19F
LEE`S SUMMIT   CLOUDY    35  25  66 SE10      30.19F WCI  27
ST JOSEPH      CLOUDY    33  17  51 SE13      30.17F WCI  24
CHILLICOTHE      N/A     32  17  54 SE7G18    30.25F WCI  26
KIRKSVILLE     CLOUDY    30  15  53 SE14      30.27F WCI  19

$$
MOZ066>068-077>081-088>096-101>105-102200-
...SOUTHWEST MISSOURI...

CITY           SKY/WX    TMP DP  RH WIND       PRES   REMARKS
SPRINGFIELD    CLOUDY    40  20  44 S18       30.23F
JOPLIN         CLOUDY    44  12  27 S12       30.21F
BRANSON        PTSUNNY   39  18  41 SE12G17   30.27F

$$
MOZ032>034-039>042-045>050-055>058-069>072-102200-
...CENTRAL MISSOURI...

CITY           SKY/WX    TMP DP  RH WIND       PRES   REMARKS
COLUMBIA       CLOUDY    34  16  47 SE10      30.29F WCI  26
JEFFERSON CITY CLOUDY    36  17  46 SE9       30.32F WCI  29
ROLLA          CLOUDY    34  18  52 SE9       30.31F WCI  27
SEDALIA        CLOUDY    39  16  39 SE12      30.26F
WHITEMAN AFB   CLOUDY    38  15  38 S10       30.23F
WARRENSBURG    CLOUDY    36  19  51 SE12      30.23F WCI  27
OSAGE BEACH    CLOUDY    38  18  44 S12       30.30F

$$
MOZ051-052-059>065-102200-
...EAST CENTRAL MISSOURI...

CITY           SKY/WX    TMP DP  RH WIND       PRES   REMARKS
ST LOUIS INTL  CLOUDY    35  14  42 S13       30.40S WCI  26
SPIRIT OF STL  CLOUDY    34  16  47 S6        30.39F WCI  29
ST CHARLES     CLOUDY    33  20  58 E9        30.39F WCI  25

$$
MOZ072>076-082>087-097>100-106>115-102200-
...SOUTH CENTRAL AND SOUTHEAST MISSOURI...

CITY           SKY/WX    TMP DP  RH WIND       PRES   REMARKS
CAPE GIRARDEAU SUNNY     37  18  46 SE14      30.43F WCI  28
FARMINGTON     CLOUDY    33  19  56 S7        30.38F WCI  27
POPLAR BLUFF   CLOUDY    36  21  54 SE10      30.43F WCI  28
WEST PLAINS    CLOUDY    33  16  49 S13       30.36F WCI  24

$$




USA.gov is the U.S. government's official web portal to all federal, state and local government web resources and services.